Regional Weather Roundup
Issued by NWS Grand Forks, ND

Home | Current Version | Previous Version | Graphics & Text | Print | Product List | Glossary On
Versions: 1 2 3 4 5 6 7 8 9 10 11 12 13 14 15 16 17 18 19 20 21 22 23 24 25 26 27 28 29 30 31 32 33 34 35 36 37 38 39 40 41 42 43 44 45 46 47 48 49 50
000
ASUS43 KFGF 221231
RWRFGF
PRAIRIE TO PINES  WEATHER ROUNDUP
NATIONAL WEATHER SERVICE EASTERN NORTH DAKOTA/GRAND FORKS ND
700 AM CDT FRI AUG 22 2014

 **SATELLITE DATA USED TO AUGMENT SKY COVER AT AUTOMATED STATIONS**
 *****  WEATHER ACROSS EASTERN NORTH DAKOTA  *****

CITY           SKY/WX    TMP DP  RH WIND       PRES   REMARKS
GRAND FORKS    CLOUDY    67  66  97 N8        29.96R
6HR MIN TEMP:  67; 6HR MAX TEMP:  68;

GRAND FRKS AFB CLOUDY    67  67 100 N8        29.98R
GRAND FRKS NWS   N/A     64 N/A N/A N10         N/A
DEVILS LAKE    CLOUDY    63  57  82 N9        30.01R
6HR MIN TEMP:  63; 6HR MAX TEMP:  66;

FARGO          FOG       66  66 100 CALM      29.95R VSB 1/4
WAHPETON ARPT  CLOUDY    68  64  88 CALM      29.96R VSB<1/4
$$

 ***** WEATHER ACROSS CENTRAL AND WESTERN NORTH DAKOTA  *****

CITY           SKY/WX    TMP DP  RH WIND       PRES   REMARKS
BISMARCK       CLOUDY    65  64  97 CALM      30.01S
6HR MIN TEMP:  65; 6HR MAX TEMP:  68; 6HR PCP:  0.13;

MINOT          LGT RAIN  60  58  92 N10       30.05S FOG
6HR MIN TEMP:  60; 6HR MAX TEMP:  64; 6HR PCP:  0.02;

JAMESTOWN      CLOUDY    68  66  93 NW7       30.00R
6HR MIN TEMP:  65; 6HR MAX TEMP:  68;

MINOT AFB      CLOUDY    60  60 100 N10       30.05S
GARRISON         N/A     63  61  93 NE9       30.03S
WILLISTON      CLOUDY    61  56  83 NE9       30.09R
6HR MIN TEMP:  61; 6HR MAX TEMP:  64; 6HR PCP: TRACE;

DICKINSON      CLOUDY    63  61  93 CALM      30.04R
6HR MIN TEMP:  62; 6HR MAX TEMP:  63; 6HR PCP:  0.14;

HETTINGER      CLOUDY    59  57  93 CALM      30.06R
6HR MIN TEMP:  57; 6HR MAX TEMP:  62;

$$

 *****  OTHER AIRPORT OBSERVATIONS IN OUR AREA  *****

CITY           SKY/WX    TMP DP  RH WIND       PRES   REMARKS
WALHALLA         N/A     63  63 100 N10       30.02R
GRAFTON AIRPOR CLOUDY    64  64 100 NW14      29.98R FOG
VALLEY CITY AR CLOUDY    66  66 100 N6        30.00R
CANDO          CLOUDY    61  59  94 N9        30.05R
CAVALIER APRT  CLOUDY    63  63 100 NW8       30.00R FOG
GWINNER        CLOUDY    66  66 100 N9        29.98S VSB 1/4
SHEYENNE NWR     N/A     66  66 100 NW5       29.95S
ROLLA          PTSUNNY   59  59 100 N12       30.08R FOG
 ***** THE ABOVE OBSERVATIONS ARE NON NWS ARE NOT QUALITY
       CONTROLLED AND MAY MIS-REPORT RAIN FOR SNOW...
$$

  *****  WEATHER ACROSS NORTHERN MINNESOTA  *****

CITY           SKY/WX    TMP DP  RH WIND       PRES   REMARKS
FLAG ISLAND    CLOUDY    66  63  88 CALM      29.96S
WARROAD        CLOUDY    66  64  94 E7        29.97R
ROSEAU         PTCLDY    66  63  88 CALM      29.96S
HALLOCK        CLOUDY    66  64  94 NW5       29.98R
THF RVR FALLS  CLOUDY    68  66  94 CALM      29.96R
6HR MIN TEMP:  66; 6HR MAX TEMP:  70; 6HR PCP:  0.01;

BAUDETTE       CLOUDY    65  62  90 SE3       29.98R
6HR MIN TEMP:  63; 6HR MAX TEMP:  66;

WASKISH        CLOUDY    64  64 100 CALM      29.97S
CROOKSTON      CLOUDY    66  66 100 NW7       29.97R FOG
$$
  *****  WEATHER ACROSS CENTRAL AND WEST MINNESOTA  *****

CITY           SKY/WX    TMP DP  RH WIND       PRES   REMARKS
FOSSTON        CLOUDY    66  63  88 CALM      29.97R
BEMIDJI        CLOUDY    66  65  95 SE3       29.97S FOG
PARK RAPIDS    CLOUDY    67  66  97 CALM      29.97R
6HR MIN TEMP:  66; 6HR MAX TEMP:  68;

ELBOW LAKE     CLOUDY    69  68  97 CALM      29.96R
6HR MIN TEMP:  67; 6HR MAX TEMP:  69;

WADENA         FOG       66  66 100 CALM      29.97R VSB 1/4
DETROIT LAKES  CLOUDY    68  68 100 CALM      29.98R FOG
MOORHEAD       DRZL/FOG  66  66 100 N3        29.96S VSB<1/4
FERGUS FALLS   CLOUDY    68  66  94 CALM      29.95R FOG
MORRIS MN      FOG       70  68  94 CALM      29.94S VSB 3/4
STAPLES        CLOUDY    64  64 100 CALM      29.97R FOG
$$
  *****  WEATHER ELSEWHERE ACROSS MINNESOTA  *****

CITY           SKY/WX    TMP DP  RH WIND       PRES   REMARKS
DULUTH         FOG       62  60  93 NE3       29.96R VSB 1/4
6HR MIN TEMP:  62; 6HR MAX TEMP:  64; 6HR PCP:  0.01;

INTRNTL FALLS  CLOUDY    64  61  90 CALM      29.97R
6HR MIN TEMP:  63; 6HR MAX TEMP:  64;

ELY            FOG       63  61  94 CALM      29.98S VSB 3/4
CLOQUET        FOG       61  59  94 CALM      29.96R VSB 3/4
WHEATON        FOG       64  64 100 NW3       29.98R VSB<1/4
BRAINERD       CLOUDY    64  64 100 CALM      29.96S FOG
6HR MIN TEMP:  63; 6HR MAX TEMP:  64; 6HR PCP: TRACE;

HIBBING        CLOUDY    65  61  87 CALM      29.97R FOG
6HR MIN TEMP:  64; 6HR MAX TEMP:  66;

ALEXANDRIA     CLOUDY    69  67  93 SE3       29.97R
6HR MIN TEMP:  66; 6HR MAX TEMP:  70;

SAINT CLOUD    CLOUDY    69  67  93 N3        29.93S FOG
6HR MIN TEMP:  69; 6HR MAX TEMP:  73;

MINNEAPOLIS    CLOUDY    71  69  93 NW9       29.91S
6HR MIN TEMP:  71; 6HR MAX TEMP:  73;

$$

  *****  WEATHER ACROSS SOUTH DAKOTA  *****

CITY           SKY/WX    TMP DP  RH WIND       PRES   REMARKS
SIOUX FALLS    CLEAR     63  63 100 CALM      29.94R FOG
6HR MIN TEMP:  63; 6HR MAX TEMP:  70; 6HR PCP: TRACE;

BROOKINGS      NOT AVBL
WATERTOWN      MOCLDY    62  62 100 N7        29.99R FOG
6HR MIN TEMP:  60; 6HR MAX TEMP:  67;

HURON          PTCLDY    59  59 100 CALM      29.97R FOG
6HR MIN TEMP:  57; 6HR MAX TEMP:  64;

SISSETON         N/A     66  66 100 N8        29.96R
ABERDEEN       MOCLDY    64  64 100 N8        29.98R
6HR MIN TEMP:  60; 6HR MAX TEMP:  65;

MITCHELL       FOG       62  61  96 N3        29.95R VSB 1/4
PIERRE         PTCLDY    65  64  97 NE12      29.97S
6HR MIN TEMP:  65; 6HR MAX TEMP:  68; 6HR PCP: TRACE;

MOBRIDGE       LGT RAIN  64  63  96 NW12      30.01R
RAPID CITY     CLOUDY    61  60  97 N8        30.06S FOG
6HR MIN TEMP:  61; 6HR MAX TEMP:  64;

$$

  *****  SOME WEATHER IN NEARBY STATES *****

CITY           SKY/WX    TMP DP  RH WIND       PRES   REMARKS
GLASGOW MT     CLOUDY    59  58  96 NE10      30.09R
6HR MIN TEMP:  59; 6HR MAX TEMP:  61; 6HR PCP:  0.02;

GREAT FALLS MT LGT RAIN  51  51 100 N9        30.12F FOG
6HR MIN TEMP:  51; 6HR MAX TEMP:  53; 6HR PCP:  0.09;

CHEYENNE WY    LGT RAIN  60  50  69 S6        30.21R
6HR MIN TEMP:  58; 6HR MAX TEMP:  62; 6HR PCP: TRACE;

SCOTTSBLUFF NE CLOUDY    63  55  75 CALM      30.09R
6HR MIN TEMP:  63; 6HR MAX TEMP:  68;

OMAHA NE       PTCLDY    73  70  90 CALM      29.90R
6HR MIN TEMP:  73; 6HR MAX TEMP:  78; 6HR PCP: TRACE;

DES MOINES IA  CLOUDY    73  69  87 N5        29.89R
6HR MIN TEMP:  73; 6HR MAX TEMP:  81; 6HR PCP:  0.05;

DAVENPORT IA   MOCLDY    76  73  91 S5        29.91R
6HR MIN TEMP:  72; 6HR MAX TEMP:  76; 6HR PCP:  0.14;

CHICAGO IL     MOCLDY    74  70  87 SW3       29.92R
6HR MIN TEMP:  72; 6HR MAX TEMP:  75; 6HR PCP:  1.64;

EAU CLAIRE WI  CLOUDY    71  71 100 CALM      29.88S FOG
6HR MIN TEMP:  69; 6HR MAX TEMP:  73;

LA CROSSE WI   CLOUDY    74  71  91 S6        29.88R
6HR MIN TEMP:  74; 6HR MAX TEMP:  76;

$$

  *****  SOME NATIONAL WEATHER *****

CITY           SKY/WX    TMP DP  RH WIND       PRES   REMARKS
LA GUARDIA NY  PTSUNNY   70  64  83 E10       30.03R
6HR MIN TEMP:  68; 6HR MAX TEMP:  69; 6HR PCP: TRACE;

RALEIGH NC     PTSUNNY   76  71  85 CALM      30.03R
6HR MIN TEMP:  71; 6HR MAX TEMP:  76;

ATLANTA GA     MOSUNNY   75  71  87 NW6       30.11R
6HR MIN TEMP:  74; 6HR MAX TEMP:  76;

NEW ORLEANS LA MOCLDY    76  73  91 CALM      30.11R
6HR MIN TEMP:  75; 6HR MAX TEMP:  78;

OKLAHOMA CITY  PTCLDY    78  64  61 S9        29.98R
6HR MIN TEMP:  72; 6HR MAX TEMP:  82;

ALBUQUERQUE NM CLOUDY    70  47  43 W12       30.15S
6HR MIN TEMP:  70; 6HR MAX TEMP:  75;

SALT LAKE CITY MOCLDY    68  49  50 SE5       29.98R
6HR MIN TEMP:  62; 6HR MAX TEMP:  69;

LOS ANGELES CA MOCLDY    67  62  84 W5        29.93F
6HR MIN TEMP:  67; 6HR MAX TEMP:  69;



USA.gov is the U.S. government's official web portal to all federal, state and local government web resources and services.